Weather History for Clinton, IA

Change the Weather History Date:

Wednesday, April 3, 2013

  Actual Average Record
Temperature  
Mean Temperature 32 °F -  
Max Temperature 46 °F 55 °F 83 °F (1981)
Min Temperature 17 °F 35 °F 16 °F (1975)
Degree Days  
Heating Degree Days 34    
Moisture  
Dew Point 16 °F    
Average Humidity 52    
Maximum Humidity 86    
Minimum Humidity 27    
Precipitation  
Precipitation 0.00 in - - ()
Sea Level Pressure  
Sea Level Pressure 30.39 in    
Wind  
Wind Speed 7 mph (East)    
Max Wind Speed 12 mph    
Max Gust Speed -    
Visibility 10 miles    
Events      
Averages and records for this station are not official NWS values.
T = Trace of Precipitation, MM = Missing Value Source: NWS Daily Summary

Daily Weather History Graph

Daily Weather History Graph

Search for Another Location

Airport:

Trip Planner

Search our weather history database for the weather conditions in past years. The results will help you decide how hot, cold, wet, or windy it might be!

Date:

Astronomy

Apr. 03, 2013 Rise Set
Actual Time 6:40 AM CDT 7:29 PM CDT
Civil Twilight 6:12 AM CDT 7:57 PM CDT
Nautical Twilight 5:38 AM CDT 8:31 PM CDT
Astronomical Twilight 5:04 AM CDT 9:06 PM CDT
Moon 2:27 AM CDT (4/3) 12:36 PM CDT (4/3)
Length of Visible Light 13h 45m
Length of Day
12h 49m
Last Quarter, 44% of the Moon is Illuminated
Apr 3
Last Quarter
Apr 10
New
Apr 18
First Quarter
Apr 25
Full
May 2
Last Quarter

Hourly Weather History & Observations

Time (CDT) Temp. Windchill Dew Point Humidity Pressure Visibility Wind Dir Wind Speed Gust Speed Precip Events Conditions
12:15 AM 24.8 °F 16.1 °F 15.8 °F 69% 30.36 in 10.0 mi North 8.1 mph - N/A   Clear
12:35 AM 24.8 °F 16.1 °F 17.6 °F 74% 30.36 in 10.0 mi North 8.1 mph - N/A   Clear
12:55 AM 23.0 °F 13.1 °F 15.8 °F 74% 30.36 in 10.0 mi North 9.2 mph - N/A   Clear
1:15 AM 24.8 °F 15.3 °F 17.6 °F 74% 30.36 in 10.0 mi North 9.2 mph - N/A   Clear
1:35 AM 24.8 °F 15.3 °F 15.8 °F 69% 30.36 in 10.0 mi North 9.2 mph - N/A   Clear
1:55 AM 24.8 °F 16.1 °F 15.8 °F 69% 30.37 in 10.0 mi North 8.1 mph - N/A   Clear
2:15 AM 24.8 °F 15.3 °F 15.8 °F 69% 30.37 in 10.0 mi North 9.2 mph - N/A   Clear
2:35 AM 24.8 °F 16.1 °F 17.6 °F 74% 30.37 in 10.0 mi North 8.1 mph - N/A   Clear
2:55 AM 21.2 °F 12.6 °F 15.8 °F 80% 30.38 in 10.0 mi North 6.9 mph - N/A   Clear
3:15 AM 21.2 °F - 17.6 °F 86% 30.38 in 10.0 mi Calm Calm - N/A   Clear
3:35 AM 23.0 °F - 17.6 °F 80% 30.38 in 10.0 mi Calm Calm - N/A   Clear
4:15 AM 21.2 °F 12.6 °F 15.8 °F 80% 30.38 in 10.0 mi NNE 6.9 mph - N/A   Clear
4:35 AM 19.4 °F 12.8 °F 12.2 °F 74% 30.40 in 10.0 mi North 4.6 mph - N/A   Clear
4:55 AM 21.2 °F 14.9 °F 15.8 °F 80% 30.40 in 10.0 mi North 4.6 mph - N/A   Clear
5:15 AM 21.2 °F - 12.2 °F 68% 30.42 in 10.0 mi Calm Calm - N/A   Clear
5:35 AM 17.6 °F 12.3 °F 10.4 °F 73% 30.43 in 10.0 mi WSW 3.5 mph - N/A   Clear
5:55 AM 21.2 °F 16.4 °F 15.8 °F 80% 30.42 in 10.0 mi North 3.5 mph - N/A   Clear
6:15 AM 19.4 °F 10.4 °F 14.0 °F 80% 30.41 in 10.0 mi NNE 6.9 mph - N/A   Clear
6:35 AM 21.2 °F 13.6 °F 15.8 °F 80% 30.42 in 10.0 mi North 5.8 mph - N/A   Clear
6:55 AM 21.2 °F 11.7 °F 15.8 °F 80% 30.43 in 10.0 mi North 8.1 mph - N/A   Clear
7:15 AM 23.0 °F 17.0 °F 17.6 °F 80% 30.44 in 10.0 mi North 4.6 mph - N/A   Clear
7:35 AM 24.8 °F 19.1 °F 17.6 °F 74% 30.44 in 10.0 mi NNE 4.6 mph - N/A   Clear
7:55 AM 26.6 °F 20.0 °F 19.4 °F 74% 30.45 in 10.0 mi NNE 5.8 mph - N/A   Clear
8:15 AM 28.4 °F 21.2 °F 19.4 °F 69% 30.46 in 10.0 mi NE 6.9 mph - N/A   Clear
8:35 AM 30.2 °F 21.9 °F 17.6 °F 60% 30.46 in 10.0 mi NE 9.2 mph - N/A   Clear
8:55 AM 32.0 °F 23.6 °F 19.4 °F 60% 30.46 in 10.0 mi ENE 10.4 mph - N/A   Clear
9:15 AM 33.8 °F 25.3 °F 19.4 °F 56% 30.46 in 10.0 mi East 11.5 mph - N/A   Clear
9:35 AM 35.6 °F 28.6 °F 17.6 °F 48% 30.46 in 10.0 mi ENE 9.2 mph - N/A   Clear
9:55 AM 35.6 °F 29.2 °F 15.8 °F 44% 30.47 in 10.0 mi East 8.1 mph - N/A   Clear
10:15 AM 37.4 °F 32.1 °F 14.0 °F 38% 30.47 in 10.0 mi ESE 6.9 mph - N/A   Clear
10:35 AM 37.4 °F 31.4 °F 12.2 °F 36% 30.47 in 10.0 mi East 8.1 mph - N/A   Clear
10:55 AM 39.2 °F 33.6 °F 12.2 °F 33% 30.47 in 10.0 mi SE 8.1 mph - N/A   Clear
11:15 AM 39.2 °F 35.0 °F 12.2 °F 33% 30.47 in 10.0 mi SE 5.8 mph - N/A   Clear
11:35 AM 39.2 °F 34.2 °F 12.2 °F 33% 30.47 in 10.0 mi ESE 6.9 mph - N/A   Clear
11:55 AM 39.2 °F 33.6 °F 15.8 °F 39% 30.46 in 10.0 mi SE 8.1 mph - N/A   Clear
12:15 PM 39.2 °F 34.2 °F 12.2 °F 33% 30.46 in 10.0 mi ESE 6.9 mph - N/A   Clear
12:35 PM 41.0 °F 35.2 °F 14.0 °F 33% 30.45 in 10.0 mi ESE 9.2 mph - N/A   Clear
12:55 PM 42.8 °F 37.5 °F 12.2 °F 29% 30.44 in 10.0 mi SSE 9.2 mph - N/A   Clear
1:15 PM 42.8 °F 39.3 °F 12.2 °F 29% 30.43 in 10.0 mi South 5.8 mph - N/A   Clear
1:35 PM 42.8 °F - 15.8 °F 34% 30.42 in 10.0 mi Calm Calm - N/A   Clear
1:55 PM 42.8 °F 38.6 °F 14.0 °F 31% 30.41 in 10.0 mi ENE 6.9 mph - N/A   Clear
2:15 PM 44.6 °F 42.2 °F 14.0 °F 29% 30.40 in 10.0 mi ENE 4.6 mph - N/A   Clear
2:35 PM 42.8 °F 38.0 °F 12.2 °F 29% 30.39 in 10.0 mi East 8.1 mph - N/A   Clear
2:55 PM 44.6 °F 40.7 °F 14.0 °F 29% 30.39 in 10.0 mi East 6.9 mph - N/A   Clear
3:15 PM 44.6 °F 40.7 °F 12.2 °F 27% 30.39 in 10.0 mi SE 6.9 mph - N/A   Clear
3:35 PM 44.6 °F 39.2 °F 12.2 °F 27% 30.39 in 10.0 mi ESE 10.4 mph - N/A   Clear
3:55 PM 44.6 °F 39.7 °F 14.0 °F 29% 30.38 in 10.0 mi ESE 9.2 mph - N/A   Clear
4:15 PM 46.4 °F 41.9 °F 15.8 °F 29% 30.37 in 10.0 mi ESE 9.2 mph - N/A   Clear
4:35 PM 46.4 °F 43.5 °F 15.8 °F 29% 30.36 in 10.0 mi SE 5.8 mph - N/A   Clear
4:55 PM 46.4 °F 41.5 °F 15.8 °F 29% 30.36 in 10.0 mi ESE 10.4 mph - N/A   Clear
5:15 PM 46.4 °F 41.5 °F 15.8 °F 29% 30.35 in 10.0 mi ESE 10.4 mph - N/A   Clear
5:35 PM 46.4 °F 41.5 °F 15.8 °F 29% 30.35 in 10.0 mi SE 10.4 mph - N/A   Clear
5:55 PM 44.6 °F 39.2 °F 15.8 °F 31% 30.35 in 10.0 mi SSE 10.4 mph - N/A   Clear
6:15 PM 44.6 °F 39.7 °F 15.8 °F 31% 30.35 in 10.0 mi SE 9.2 mph - N/A   Clear
6:35 PM 44.6 °F 41.4 °F 15.8 °F 31% 30.34 in 10.0 mi SSE 5.8 mph - N/A   Clear
6:55 PM 44.6 °F 41.4 °F 15.8 °F 31% 30.34 in 10.0 mi SE 5.8 mph - N/A   Clear
7:15 PM 41.0 °F 37.1 °F 17.6 °F 39% 30.34 in 10.0 mi ESE 5.8 mph - N/A   Clear
7:35 PM 39.2 °F 35.0 °F 15.8 °F 39% 30.33 in 10.0 mi ESE 5.8 mph - N/A   Clear
7:55 PM 37.4 °F 34.9 °F 19.4 °F 48% 30.33 in 10.0 mi ESE 3.5 mph - N/A   Clear
8:15 PM 37.4 °F 32.8 °F 15.8 °F 41% 30.33 in 10.0 mi ESE 5.8 mph - N/A   Clear
8:35 PM 37.4 °F 34.9 °F 17.6 °F 45% 30.33 in 10.0 mi ESE 3.5 mph - N/A   Clear
8:55 PM 35.6 °F 32.8 °F 17.6 °F 48% 30.33 in 10.0 mi ESE 3.5 mph - N/A   Clear
9:15 PM 33.8 °F 28.6 °F 17.6 °F 52% 30.33 in 10.0 mi East 5.8 mph - N/A   Clear
9:35 PM 33.8 °F 28.6 °F 17.6 °F 52% 30.32 in 10.0 mi East 5.8 mph - N/A   Clear
9:55 PM 33.8 °F 28.6 °F 17.6 °F 52% 30.32 in 10.0 mi East 5.8 mph - N/A   Clear
10:15 PM 32.0 °F 26.4 °F 17.6 °F 55% 30.32 in 10.0 mi ESE 5.8 mph - N/A   Clear
10:35 PM 32.0 °F 26.4 °F 17.6 °F 55% 30.32 in 10.0 mi ESE 5.8 mph - N/A   Clear
10:55 PM 30.2 °F 25.4 °F 17.6 °F 60% 30.32 in 10.0 mi ESE 4.6 mph - N/A   Clear
11:15 PM 30.2 °F 24.3 °F 17.6 °F 60% 30.31 in 10.0 mi SE 5.8 mph - N/A   Clear
11:35 PM 30.2 °F 24.3 °F 17.6 °F 60% 30.31 in 10.0 mi SSE 5.8 mph - N/A   Clear
11:55 PM 33.8 °F 27.7 °F 17.6 °F 52% 30.30 in 10.0 mi SSE 6.9 mph - N/A   Clear